Regional Weather Roundup
Issued by NWS

Home | Current Version | Previous Version | Text Only | Print | Product List | Glossary On
Versions: 1 2 3 4 5 6 7 8 9 10 11 12 13 14 15 16 17 18 19 20 21 22 23 24 25 26 27
000
ASUS45 KTFX 220310
RWRMT
MONTANA REGIONAL WEATHER ROUNDUP
NATIONAL WEATHER SERVICE GREAT FALLS MT
800 PM MST TUE FEB 21 2017

NOTE: "FAIR" INDICATES FEW OR NO CLOUDS BELOW 12000 FEET WITH NO
SIGNIFICANT WEATHER AND/OR OBSTRUCTIONS TO VISIBILITY.

MTZ001>007-043-220400-
WEST OF THE DIVIDE

CITY           SKY/WX    TMP DP  RH WIND       PRES   REMARKS
KALISPELL      FLURRIES  33  32  96 CALM      29.76S
MISSOULA       CLOUDY    38  36  92 CALM      29.80R
BUTTE          CLOUDY    37  18  46 SW7G18    29.74S WCI  32
MULLAN PASS    SNOW      25  25 100 VRB6      29.76R VSB 1/2 WCI  18
ANACONDA         N/A     37  21  52 SW15G21   29.74R WCI  28
DEER LODGE       N/A     37  30  75 W6        29.76R
EUREKA           N/A     32  30  93 CALM      29.78R
HAMILTON         N/A     36  32  87 S14       29.83R WCI  27
LIBBY            N/A     32  30  93 CALM      29.80R
PLAINS           N/A     34  29  82 CALM      29.84R
RONAN            N/A     35  33  92 W1        29.84R
THOMPSON FALLS   N/A     34  32  92 CALM      29.90R
$$

MTZ008-052>055-220400-
SOUTHWEST MONTANA

CITY           SKY/WX    TMP DP  RH WIND       PRES   REMARKS
BOZEMAN        CLEAR     41  20  43 SW20G26   29.74R
DILLON         CLOUDY    35  20  54 SW25G36   29.74F WCI  23
W YELLOWSTONE  CLOUDY    28  27  93 SW13G22   29.82F WCI  18
ENNIS          PTCLDY    34  21  60 S9        29.85S WCI  26
THREE FORKS      N/A     39  39 100 S8        29.76R
TWIN BRIDGES     N/A     35  22  59 E7        29.80S WCI  29
$$

MTZ009-010-012-014-046-048-049-054-220400-
EAST SLOPES AND CENTRAL MONTANA

CITY           SKY/WX    TMP DP  RH WIND       PRES   REMARKS
CUT BANK       LGT SNOW  31  31 100 N7        29.69R FOG     WCI  24
GREAT FALLS    FOG       35  34  96 E7        29.65S VSB 1/4 WCI  29
MALMSTROM AFB  CLOUDY    34  35 100 SE3       29.67S FOG
HELENA         CLOUDY    44  22  41 VRB3      29.67R
AUGUSTA        MOCLDY    29  30 100 N9        29.64R WCI  21
BOWMANS CRNR     N/A     36  30  79 SW18      29.62F WCI  25
CHOTEAU        FOG       32  32 100 NE7       29.68R VSB 1/2 WCI  26
CONRAD           N/A     32  32 100 MISG      29.73R
POWER          FOG       34  34  99 E5        29.65R VSB 3/8
RAYNESFORD     MOCLDY    35  35  99 MISG      29.66F FOG
ULM            MOCLDY    34  34 100 MISG      29.66R
$$

MTZ011-013-016-021-045-047-050-051-220400-
NORTH CENTRAL MONTANA

CITY           SKY/WX    TMP DP  RH WIND       PRES   REMARKS
HAVRE          CLOUDY    34  34 100 NE3       29.69S
LEWISTOWN      MOCLDY    33  30  88 S3        29.65F
N BAR RANCH    CLOUDY    36  30  80 W7        29.68S WCI  30
CHINOOK          N/A     36  36 100 CALM      29.70R
DENTON         LGT RAIN  36  35  93 W15       29.67R WCI  27
FORT BENTON      N/A     36  34  93 CALM      29.69S
GEYSER         CLOUDY    36  34  90 SW6       29.65F WCI  32
GRASS RANGE    MOCLDY    34  31  87 SW3       29.62F
JUDITH GAP     MOCLDY    37  22  55 W9        29.66R WCI  30
ROY            MOCLDY    35  35  98 MISG      29.66R
STANFORD       MOCLDY    35  33  92 NW3       29.66R
WINIFRED       MOCLDY    33  33 100 E6        29.67R WCI  28
$$

MTZ017>020-022>027-061-062-220400-
NORTHEAST MONTANA

CITY           SKY/WX    TMP DP  RH WIND       PRES   REMARKS
GLASGOW        CLOUDY    35  33  92 NE10      29.67F WCI  27
JORDAN           N/A     32  29  88 CALM      29.69R
SIDNEY         CLOUDY    40  37  89 N8        29.69R
WOLF POINT     CLOUDY    37  33  85 N10       29.68F WCI  30
PLENTYWOOD       N/A     34  34 100 N15       29.69R WCI  24
POPLAR           N/A     36  34  93 NE5       29.69S
SCOBEY           N/A     33  27  79 NW12      29.68F WCI  24
$$

MTZ028>42-056>058-220400-
SOUTHCENTRAL AND SOUTHEAST MONTANA

CITY           SKY/WX    TMP DP  RH WIND       PRES   REMARKS
BAKER          MOCLDY    40  35  83 SW12      29.65F
BILLINGS       CLOUDY    49  23  36 SW10      29.68R
LIVINGSTON     PTCLDY    43  17  35 W20G31    29.71S
MILES CITY     CLOUDY    43  37  79 CALM      29.64F
BIG TIMBER     CLEAR     45  18  33 W21G32    29.72S
EKALAKA          N/A     42  32  68 CALM      29.68F
FORSYTH          N/A     45  37  76 SE6       29.67R
HARLOWTON      MOCLDY    40  20  44 SW14      29.66S
LAUREL           N/A     48  23  37 CALM      29.71R
$$

REGIONAL REPORTS...DAKOTAS

CITY           SKY/WX    TMP DP  RH WIND       PRES   REMARKS
WILLISTON      CLOUDY    35  31  85 N9        29.68R FOG     WCI  28
MINOT          CLOUDY    34  32  92 NW9       29.65F WCI  27
DICKINSON      CLOUDY    39  36  89 N9        29.63R
BEACH            N/A    N/A N/A N/A MISG        N/A
CROSBY         LGT SNOW  32  32 100 N9        29.71S WCI  24
TIOGA          CLOUDY    32  32 100 N8        29.68R WCI  25
WATFORD CITY   CLOUDY    36  36 100 CALM      29.68R
BISMARCK       LGT RAIN  39  37  92 VRB3      29.71R
GRAND FORKS    LGT RAIN  33  30  88 N6        29.69S VSB 1/2 WCI  28
FARGO          PTCLDY    36  35  96 NE6       29.66F WCI  31
BUFFALO SD       N/A     42  36  79 E8        29.61F
RAPID CITY     CLEAR     51  36  56 NW18      29.74R
$$

REGIONAL REPORTS...WYOMING/IDAHO/WASHINGTON

CITY           SKY/WX    TMP DP  RH WIND       PRES   REMARKS
GILLETTE       CLOUDY    48  36  63 W8        29.73F
SHERIDAN       CLOUDY    50  24  36 SW41G56   29.70F
BUFFALO WY     CLOUDY    50  20  30 W9        29.77S
CODY           CLOUDY    40  25  55 W13G18    29.79F
YELLOWSTONE LA   N/A     25  22  88 VRB6      29.85F WCI  18
IDAHO FALLS    PTCLDY    35  31  85 SW16      29.93R WCI  25
SALMON         CLOUDY    39  25  56 SW14      29.82S WCI  31
BOISE          CLOUDY    45  27  49 W15G31    30.01R
SPOKANE        DRZL/FOG  32  31  96 W17       29.90R VSB 3/4 WCI  21
$$

REGIONAL REPORTS...ALBERTA

CITY           SKY/WX    TMP DP  RH WIND       PRES   REMARKS
EDMONTON       CLOUDY    28  25  86 NW7       29.77R WCI  21
CALGARY        PTCLDY    27  25  93 S6        29.69R HAZE    WCI  20
LETHBRIDGE     CLOUDY    32  30  93 SW3       29.72R FOG
MEDICINE HAT   CLOUDY    36  32  87 E8        29.73R WCI  29
WATERTON GATE    N/A     30  28  93 CALM        N/A
CARDSTON         N/A     30  28  93 S2          N/A
MILK RIVER       N/A     32  32 100 N7          N/A  WCI  26
$$

REGIONAL REPORTS...SASKATCHEWAN

CITY           SKY/WX    TMP DP  RH WIND       PRES   REMARKS
SWIFT CURRENT  CLOUDY    30  28  93 NE5       29.73R
REGINA         CLOUDY    32  27  80 N12       29.74S WCI  23
SASKATOON      CLOUDY    32  25  74 NW3       29.78S
VAL MARIE        N/A     32  30  93 NE15        N/A  WCI  22
ROCKGLEN         N/A     30  28  93 N10         N/A  WCI  21
ASSINIBOIA       N/A     30  28  93 N3          N/A
$$




USA.gov is the U.S. government's official web portal to all federal, state and local government web resources and services.